User: anonymous   Login
Location: Asheville, NC
(35.6000°N, 82.5500°W)
Time: 23:05:37
(UTC-04:00)
Language:

50 SAT - Orbit

View from above orbital plane
View from above orbital plane
View from above satellite
View from above satellite

Ground track
Ground track

The orbit data is extracted from the following two-line orbital elements,

1 39436U 13066W   18113.85716376  .00268588  00000-0  14725-2 0  9996
2 39436  97.7114 246.7573 0006753 290.0179  70.0360 15.79034206244798
Epoch (UTC): 23 April 2018 20:34:18
Eccentricity: 0.0006753
inclination: 97.7114°
perigee height: 328 km
apogee height: 338 km
right ascension of ascending node: 246.7573°
argument of perigee: 290.0179°
revolutions per day: 15.79034206
mean anomaly at epoch: 70.0360°
orbit number at epoch: 24479

The dashed part of the orbit path shows where the satellite is in the earth's shadow,  

DLR